Погода в Хомутовке

Россия / Курская область     51°55′21″N   34°33′47″E
темп.,
°C
ветер,
м/с
пор.,
м/с
влажн.,
%
обл.,
%
осадки,
мм/ч
давл.,
гПа
погр.,
м
25 февраля, чт
чт2500:00−4юз3697100 0.1 1030192
03:00−1зюз4897100 0.1 1029278
06:000зюз4896100 0.0 1027359
09:00+1зюз59100100 0.0 1026244
12:00+2зюз612100100 0.2 1024246
15:00+2з613100100 0.2 1023360
18:00+3з510100100 0.0 1022194
21:00+2зсз612100100 0.1 1022286
26 февраля, пт
пт2600:00+2зсз511100100 0.0 1022251
03:00+2зсз49100100 0.0 1022174
06:00+2з51099100 0.0 1021213
09:00+2зюз613100100 0.0 1019319
12:00+3зюз714100100 0.0 1017372
15:00+3з61399100 0.0 1016361
18:00+2з61398100 0.0 1014412
21:00+2з61397100 0.0 1014439
27 февраля, сб
сб2700:00+1з61493100 0.0 1013468
03:00+1з51194100 0.0 1012404
06:00+1з61296100 0.1 1010533
09:00+1зсз61197100 0.1 1009549
12:00+1зсз61198100 0.0 1011631
15:00+1зсз61097100 0.1 1011582
18:00+1зсз51097100 0.1 1011464
21:00+1сз4898100 0.4 1012327
28 февраля, вс
вс2800:000ссз5896100 0.2 1013510
03:000ссз5894100 0.4 1014444
06:00−1с589493 0.1 1016452
09:00−1с589291 0.3 1018519
12:00−1с578796 0.1 1020626
15:000ссз578598 0.1 1021717
18:00−1ссз5890100 0.1 1022539
21:00−2ссз5889100 0.1 1025577
1 марта, пн
пн100:00−2ссз4789100 0.1 1026444
03:00−3ссз4794100 0.2 1027368
06:00−3ссз3694100 0.1 1028247
09:00−3ссз359198 0.1 1030376
12:00−1ссз348071 0.1 1031681
15:00−1сз347779 0.1 1031686
18:00−2зсз358756 0.0 1032156
21:00−2зсз378745 0.0 1032201